Preview of NWS' New Version of Forecast
This preview is not operational and should not be used for support decisions.

Regional Weather Roundup (RWR)

Issued by Gray - Portland, ME (GYX)

                            
000
ASUS41 KGYX 250910
RWRGYX
WEATHER ROUNDUP FOR MAINE AND NEW HAMPSHIRE
NATIONAL WEATHER SERVICE GRAY ME
500 AM EDT FRI MAY 25 2018

MEZ002-005-006-010-012-015-018-020-021-024-026-027-029-251000-
MAINE
  
CITY           SKY/WX    TMP DP  RH WIND       PRES   REMARKS
PORTLAND       FAIR      53  49  86 SW3       29.85F                  
SANFORD        FAIR      54  47  77 SW7       29.89F                  
BAR HARBOR     FAIR      51  48  89 SW13      29.80F                  
WISCASSET      FAIR      50  49  96 CALM      29.85F                  
ROCKLAND       FAIR      52  49  89 SW13G18   29.82F                  
FRYEBURG       FAIR      62  41  46 W9        29.85F                  
LEWISTONAUBURN FAIR      43  41  93 CALM      29.84F                  
AUGUSTA        FAIR      48  47  96 VRB7      29.81F                  
WATERVILLE     FAIR      47  46  97 S3        29.78F                  
BANGOR         MOCLDY    52  48  86 S10       29.77F                  
GREENVILLE       N/A     59  41  51 VRB3G17   29.71F                  
MILLINOCKET    FAIR      50  44  80 VRB3      29.71F                  
HOULTON        CLOUDY    49  46  90 CALM      29.72S                  
PRESQUE ISLE   LGT RAIN  48  46  93 S10       29.72F                  
FRENCHVILLE    LGT RAIN  48  43  82 S12       29.66F                  
CARIBOU        LGT RAIN  49  46  90 S8        29.70F                  
$$

NHZ002-005-008-009-011-012-014-251000-
NEW HAMPSHIRE
  
CITY           SKY/WX    TMP DP  RH WIND       PRES   REMARKS
PORTSMOUTH     PTCLDY    55  49  80 SW5       29.89F                  
ROCHESTER      FAIR      53  48  83 CALM      29.90S                  
NASHUA         FAIR      57  50  77 SW3       29.95S                  
MANCHESTER     FAIR      59  49  69 S3        29.92F                  
CONCORD        FAIR      47  45  93 CALM      29.93F                  
LACONIA        FAIR      52  47  83 W5        29.92F                  
PLYMOUTH       FAIR      41  40  97 CALM      29.93S                  
BERLIN         FAIR      39  37  92 CALM      29.86F                  
WHITEFIELD     FAIR      39  37  92 CALM      29.90F                  
JAFFREY        FAIR      53  51  93 S6        29.99F                  
KEENE          FAIR      44  43  96 CALM      29.99F                  
LEBANON        FAIR      47  42  83 CALM      29.93S                  
MT WASHINGTON  PTCLDY    43  36  75 W63G72      N/A                   
$$

VTZ005-007-008-251000-
VERMONT
  
CITY           SKY/WX    TMP DP  RH WIND       PRES   REMARKS
ST JOHNSBURY     N/A     43  42  97 MISG      29.88F                  
MONTPELIER     FAIR      63  45  51 VRB6      29.94S                  
BURLINGTON     FAIR      65  45  48 S10G20    29.88F                  
$$

MAZ007-012-024-CTZ003-RIZ002-NYZ038-NYZ072-251000-
SOUTHERN NEW ENGLAND AND NY
  
CITY           SKY/WX    TMP DP  RH WIND       PRES   REMARKS
BOSTON         FAIR      55  48  77 SW12      29.96F                  
WORCESTER      FAIR      55  45  68 W13       29.99F                  
NANTUCKET      FOG       52  52 100 SW14      30.03  VSB 1/4          
PROVIDENCE     FAIR      50  47  89 CALM      30.01F                  
HARTFORD       FAIR      52  50  93 S5        30.01S                  
ALBANY         FAIR      53  46  77 CALM      30.00F                  
NEW YORK CITY  FAIR      69  50  50 SW6       30.04F                  
$$

ANZ081-ANZ082-ANZ150-NHZ014-MEZ023>029-251000-
COASTAL MARINE OBSERVATIONS
  
STATION/POSITION TIME  TEMP    WIND        PRES    WAVE
                       AIR SEA DIR/SP/G            HT/PER
                 (UTC) (F)     (DEG/KT/KT) (MB)    (FT/S)
MOUNT DESERT ROC 0900   49     200/ 26/ 29 1009.5F
MATINICUS ROCK   0900   50     220/ 25/ 28 1009.7F
ISLE OF SHOALS   0900   57     230/ 17/ 18 1012.0F
JEFFREYS LEDGE   0836      52                N/A     4/ 5
$$

.............KEY..............
   WCI - WIND CHILL
   TC  - TEMPERATURE IN CELSIUS
   VSB - VISIBILITY IN MILES
   HX  - HEAT INDEX
   FAIR- INDICATES FEW OR NO CLOUDS BELOW 12,000 FT, WITH NO 
         SIGNIFICANT WEATHER AND/OR OBSTRUCTIONS TO VISIBILITY.